Weather History for KDFI - February, 2014

Change the Weather History Date:

Wednesday, February 19, 2014

  Actual Average Record
Temperature  
Mean Temperature 34 °F -  
Max Temperature 41 °F 38 °F 65 °F (1939)
Min Temperature 28 °F 20 °F -11 °F (1936)
Degree Days  
Heating Degree Days 30    
Moisture  
Dew Point 28 °F    
Average Humidity 73    
Maximum Humidity 93    
Minimum Humidity 63    
Precipitation  
Precipitation 0.00 in - - ()
Sea Level Pressure  
Sea Level Pressure 29.89 in    
Wind  
Wind Speed 6 mph (SW)    
Max Wind Speed 9 mph    
Max Gust Speed 16 mph    
Visibility 8 miles    
Events      
Averages and records for this station are not official NWS values.
T = Trace of Precipitation, MM = Missing Value Source: NWS Daily Summary

Daily Weather History Graph

Daily Weather History Graph

Search for Another Location

Airport or City:

Trip Planner

Search our weather history database for the weather conditions in past years. The results will help you decide how hot, cold, wet, or windy it might be!

Date:

Astronomy

Feb. 19, 2014 Rise Set
Actual Time 7:27 AM EST 6:16 PM EST
Civil Twilight 6:58 AM EST 6:44 PM EST
Nautical Twilight 6:26 AM EST 7:16 PM EST
Astronomical Twilight 5:54 AM EST 7:48 PM EST
Moon 11:12 PM EST (2/19) 9:29 AM EST (2/19)
Length of Visible Light 11h 45m
Length of Day
10h 49m
Waning Gibbous, 80% of the Moon is Illuminated
Feb 19
Waning Gibbous
Feb 22
Last Quarter
Mar 1
New
Mar 8
First Quarter
Mar 16
Full

Hourly Weather History & Observations

Time (EST) Temp. Windchill Dew Point Humidity Pressure Visibility Wind Dir Wind Speed Gust Speed Precip Events Conditions
12:53 AM 39.9 °F 33.9 °F 28.9 °F 65% 29.71 in 10.0 mi SSW 9.2 mph - N/A   Clear
1:53 AM 39.0 °F 34.0 °F 28.9 °F 67% 29.69 in 10.0 mi SSW 6.9 mph - N/A   Partly Cloudy
2:53 AM 39.0 °F 34.0 °F 28.9 °F 67% 29.66 in 10.0 mi SSW 6.9 mph - N/A   Mostly Cloudy
3:53 AM 37.9 °F 32.1 °F 28.9 °F 70% 29.64 in 10.0 mi SSW 8.1 mph - N/A   Clear
4:53 AM 37.9 °F 32.7 °F 28.9 °F 70% 29.63 in 10.0 mi SW 6.9 mph - N/A   Clear
5:53 AM 36.0 °F 32.1 °F 28.0 °F 73% 29.65 in 10.0 mi SW 4.6 mph - N/A   Clear
6:53 AM 34.0 °F 29.8 °F 28.0 °F 79% 29.66 in 10.0 mi SW 4.6 mph - N/A   Clear
7:53 AM 35.1 °F 32.2 °F 28.9 °F 78% 29.70 in 10.0 mi West 3.5 mph - N/A   Clear
8:53 AM 36.0 °F 31.1 °F 28.0 °F 73% 29.75 in 10.0 mi Variable 5.8 mph - N/A   Clear
9:53 AM 39.0 °F 35.7 °F 28.9 °F 67% 29.79 in 10.0 mi Variable 4.6 mph - N/A   Overcast
10:53 AM 39.9 °F 34.5 °F 28.0 °F 63% 29.83 in 10.0 mi WNW 8.1 mph - N/A   Scattered Clouds
11:33 AM 39.2 °F 34.2 °F 28.4 °F 65% 29.85 in 9.0 mi Variable 6.9 mph - N/A   Mostly Cloudy
11:53 AM 39.9 °F 34.5 °F 30.0 °F 68% 29.87 in 10.0 mi WNW 8.1 mph - N/A   Mostly Cloudy
12:07 PM 41.0 °F 35.8 °F 30.2 °F 65% 29.87 in 10.0 mi WNW 8.1 mph - N/A   Partly Cloudy
12:53 PM 41.0 °F 35.8 °F 30.9 °F 67% 29.90 in 10.0 mi WNW 8.1 mph 16.1 mph N/A   Scattered Clouds
1:53 PM 41.0 °F 37.1 °F 30.9 °F 67% 29.93 in 9.0 mi Variable 5.8 mph - N/A   Clear
2:53 PM 41.0 °F 35.8 °F 30.9 °F 67% 29.96 in 9.0 mi WSW 8.1 mph - N/A   Clear
3:53 PM 41.0 °F 37.1 °F 30.0 °F 65% 29.99 in 9.0 mi WSW 5.8 mph - N/A   Clear
4:53 PM 41.0 °F 37.1 °F 30.0 °F 65% 30.02 in 9.0 mi SW 5.8 mph - N/A   Clear
5:53 PM 39.0 °F 33.4 °F 30.0 °F 70% 30.06 in 6.0 mi SSW 8.1 mph - N/A   Haze
6:53 PM 36.0 °F 33.3 °F 28.9 °F 76% 30.09 in 7.0 mi SSW 3.5 mph - N/A   Clear
7:53 PM 33.1 °F 30.0 °F 27.0 °F 78% 30.08 in 6.0 mi South 3.5 mph - N/A   Haze
8:53 PM 30.9 °F 26.2 °F 26.1 °F 82% 30.07 in 5.0 mi South 4.6 mph - N/A   Haze
9:53 PM 33.1 °F 30.0 °F 28.0 °F 82% 30.06 in 5.0 mi SSE 3.5 mph - N/A   Haze
10:39 PM 28.4 °F - 24.8 °F 86% 30.03 in 2.5 mi Calm Calm - N/A   Clear
10:45 PM 28.4 °F - 24.8 °F 86% 30.04 in 1.8 mi Calm Calm - N/A   Clear
10:53 PM 28.0 °F - 25.0 °F 88% 30.06 in 1.2 mi Calm Calm - N/A   Clear
11:36 PM 28.4 °F 24.6 °F 26.6 °F 93% 30.06 in 2.5 mi South 3.5 mph - N/A   Clear
11:53 PM 30.0 °F - 26.1 °F 85% 30.08 in 2.5 mi Calm Calm - N/A   Clear